RH
34 36 36 35 33 33 34 31 28 28 27 26 25 21 16 14 20 25 11 3 4 4 4 4 4 4 5 4 5 6 8 8 8 9 8 8 9 9 9 10 12 12 12
33 35 35 35 34 34 36 30 30 30 32 32 29 26 20 14 17 24 16 5 5 5 5 5 7 8 8 8 6 5 5 6 6 6 9 9 9 10 11 11 12 12 11
36 34 35 35 36 37 37 34 30 31 35 34 32 29 25 18 13 22 20 7 5 6 7 8 8 8 9 9 9 9 8 8 9 10 10 11 11 11 11 11 11 10 9
39 34 34 35 35 37 36 34 32 33 34 34 33 31 27 23 14 14 23 16 8 7 8 8 9 9 10 10 10 10 10 11 11 11 11 11 11 10 10 9 10 12 17
37 34 34 34 32 38 37 36 35 36 35 34 34 32 27 25 21 13 15 24 22 14 9 8 8 8 9 9 10 11 12 13 14 15 16 17 18 18 18 18 17 15 14
38 35 35 34 33 38 38 37 37 37 37 37 38 33 27 23 22 21 16 13 18 23 24 24 23 21 19 18 18 18 18 18 18 18 18 18 19 20 18 18 19 18 19
46 40 36 35 34 41 38 38 39 39 39 40 40 40 38 38 30 23 22 21 20 19 18 18 19 20 20 21 22 22 23 23 23 23 21 20 20 20 19 19 19 18 19
42 42 38 37 37 44 41 39 40 40 40 41 42 42 42 43 43 41 36 28 24 23 23 22 22 23 23 24 24 24 24 23 23 23 23 24 24 24 23 22 22 22 22
42 41 40 38 39 46 44 41 40 41 41 43 43 43 44 43 40 41 46 44 41 38 35 32 29 26 26 26 26 26 26 25 25 24 23 23 23 22 23 23 22 22 23
41 45 42 40 39 45 46 45 44 42 42 42 44 44 44 45 45 43 42 45 47 47 47 46 44 40 37 33 31 28 28 27 26 25 23 22 24 24 26 26 25 25 25
36 37 46 42 41 42 46 46 46 45 44 44 44 46 46 45 45 47 48 48 50 49 48 47 48 49 48 45 40 36 32 30 28 26 25 26 26 27 27 26 24 22 18
40 41 47 46 44 44 45 46 47 46 46 45 45 47 47 46 46 47 47 48 49 50 51 51 51 51 52 51 49 46 41 35 31 28 26 27 27 25 23 21 17 14 11
49 45 40 46 52 49 48 49 47 47 46 46 46 47 48 47 47 48 48 48 48 50 51 51 52 52 53 53 52 50 48 43 36 31 28 26 25 20 17 15 11 8 8
41 44 49 47 51 51 50 49 48 48 47 47 47 46 47 47 47 48 50 50 49 49 51 52 52 53 54 56 54 54 52 48 42 35 30 27 24 19 13 11 10 10 9
40 39 42 45 47 49 52 51 49 47 47 48 48 47 48 48 48 50 52 52 50 50 53 54 54 55 56 57 57 55 55 52 47 38 31 27 26 22 16 12 11 12 13
38 37 39 41 43 47 45 48 52 53 52 51 52 52 52 52 51 51 53 54 52 52 55 56 56 56 58 57 57 57 56 55 51 41 32 30 30 27 22 17 13 13 15
39 39 43 44 44 42 44 47 45 45 53 55 55 54 54 51 52 52 53 56 58 56 58 56 56 57 58 58 56 54 53 57 55 45 35 33 30 28 27 26 25 24 22
42 42 41 44 48 44 39 40 44 45 46 46 50 52 50 47 50 52 54 58 58 57 56 56 58 56 59 58 56 53 53 58 57 47 36 33 32 36 38 39 40 40 40
47 47 48 50 48 48 43 40 47 51 53 50 49 47 46 48 51 53 55 59 57 58 59 56 52 53 58 59 57 57 53 58 59 48 37 35 39 42 42 42 42 43 43
53 53 55 55 55 51 47 44 45 51 49 51 51 48 47 48 53 56 58 61 62 60 51 48 47 49 58 59 60 58 56 60 60 46 39 40 45 45 44 44 43 42 43
40 52 54 59 59 57 59 53 46 40 36 42 46 54 47 50 55 60 64 70 60 57 51 49 47 47 54 60 61 57 57 62 59 47 42 46 47 47 46 45 44 46 47
23 23 32 48 54 60 65 67 67 69 64 54 56 61 60 56 59 62 65 73 64 58 56 54 51 50 57 67 63 58 59 60 57 51 47 49 50 50 49 48 47 48 50
28 28 27 28 26 39 39 45 60 72 76 72 62 64 60 57 56 56 58 71 73 69 66 64 60 54 54 68 66 64 65 64 60 54 51 51 54 54 54 52 51 51 52
19 28 31 34 36 36 33 28 33 51 67 73 75 73 71 67 55 62 59 68 69 72 76 78 76 70 57 58 72 68 71 74 66 58 56 55 56 58 58 58 55 54 56
18 17 19 21 31 36 46 50 46 41 36 45 55 55 61 69 72 75 82 77 76 65 70 78 86 83 74 84 77 86 79 79 84 62 58 59 60 62 64 63 60 60 60
21 23 23 22 26 31 32 37 57 66 65 60 48 46 54 61 69 73 75 78 77 72 67 75 83 86 85 79 98 99 95 86 84 86 65 62 64 65 67 67 66 64 64
Wind_Speed
10 6 2 2 5 7 10 12 10 10 10 11 11 10 10 8 7 7 7 7 7 6 5 5 4 3 3 2 3 5 6 6 5 5 5 5 5 6 7 7 8 9 10
13 8 7 6 5 7 8 10 9 10 10 11 11 11 11 10 7 6 6 5 5 5 6 6 6 6 7 4 1 2 4 4 4 4 4 4 4 5 7 8 9 9 11
12 12 8 8 6 5 6 8 9 9 10 11 12 12 11 11 9 7 6 5 4 4 5 6 8 7 7 4 4 2 1 0 1 2 3 5 6 7 8 9 10 11 11
13 15 12 10 8 7 7 7 8 9 10 11 12 12 11 11 9 7 5 5 5 4 5 5 5 5 4 3 3 3 3 3 3 4 5 7 8 9 10 11 11 10 9
15 15 13 11 9 6 4 5 6 7 8 11 12 12 11 10 10 9 7 5 5 5 5 5 4 4 4 4 4 4 3 3 3 4 5 6 8 9 10 10 10 10 9
12 14 14 12 10 5 4 4 4 6 7 8 11 10 11 11 10 10 10 9 7 6 6 5 5 6 6 6 6 5 4 3 3 4 5 6 7 8 9 9 9 10 8
9 14 15 14 12 8 7 5 3 2 3 5 8 9 10 12 13 11 10 10 9 9 9 8 8 8 8 7 7 6 6 5 5 5 6 7 7 8 9 8 9 8 8
15 13 15 16 15 10 8 5 5 1 2 2 3 5 7 9 11 12 12 12 11 10 10 9 9 9 8 8 8 7 7 6 6 6 6 7 8 9 10 9 11 10 10
15 16 17 18 18 13 10 7 8 5 3 3 2 1 2 4 5 7 8 9 10 11 11 11 11 10 9 9 8 7 8 8 8 8 9 9 9 10 11 11 11 12 11
17 16 18 19 19 15 12 10 10 8 6 6 5 3 2 2 3 4 5 5 7 8 9 9 10 10 10 10 9 10 10 10 11 11 11 11 11 11 12 14 14 12 13
15 19 16 19 21 20 15 14 13 11 10 9 8 6 6 5 4 4 4 3 3 3 5 5 6 8 9 10 11 11 12 12 13 13 13 13 13 13 14 15 14 14 13
17 14 16 18 20 22 21 18 17 14 14 12 11 9 9 9 9 8 7 6 5 5 5 5 6 6 7 8 10 11 12 13 13 14 14 14 15 14 15 15 15 13 14
18 19 18 18 19 21 23 21 20 18 17 15 14 13 12 13 12 11 10 10 9 9 8 8 9 9 9 9 10 11 13 14 15 15 14 14 14 15 15 15 14 13 13
21 20 18 17 19 21 23 23 22 21 20 19 17 16 15 15 15 15 14 13 13 13 12 12 12 12 12 12 12 13 15 16 17 16 16 15 14 14 14 14 14 13 13
24 24 24 23 20 20 20 20 21 21 20 20 19 18 17 16 18 18 18 17 16 16 16 15 15 15 15 15 14 15 16 18 18 17 17 16 15 15 14 14 14 14 14
28 28 31 30 28 25 23 21 20 21 20 20 19 20 18 18 19 20 21 20 19 19 19 18 17 17 17 17 17 17 18 19 19 18 17 16 16 15 15 15 15 15 15
34 32 32 31 31 32 31 27 25 23 22 21 20 21 20 20 20 22 22 22 22 22 20 19 18 18 19 19 20 20 21 20 19 19 17 17 15 14 14 14 15 15 16
38 36 33 35 33 33 33 34 34 30 27 25 24 24 22 22 22 22 22 23 23 23 21 21 20 21 21 22 22 22 21 20 20 19 18 17 15 14 13 13 14 15 16
40 40 38 37 38 35 34 35 35 33 31 29 28 28 27 24 23 23 24 24 24 23 22 23 23 23 23 23 23 22 21 21 20 19 18 17 16 15 14 14 15 17 18
44 43 43 41 41 39 38 38 36 34 31 31 30 29 28 28 26 26 24 25 25 24 25 24 24 24 24 24 24 23 22 21 20 19 18 17 16 15 15 16 18 20 21
54 51 48 46 45 44 43 42 42 40 36 36 33 31 31 31 30 29 27 28 26 26 26 25 24 23 22 23 24 24 22 21 20 20 19 19 19 18 18 19 20 21 23
40 43 53 55 51 47 46 46 47 44 44 42 38 34 32 33 33 31 29 28 29 26 28 26 25 23 22 23 23 23 23 22 22 21 21 21 21 21 22 21 22 23 25
38 38 41 45 50 58 59 55 55 51 49 49 48 41 38 36 37 34 32 31 31 29 28 26 27 24 22 22 22 23 24 25 23 24 24 24 24 25 25 25 25 26 27
34 39 38 41 42 43 42 51 58 59 58 54 51 46 42 40 42 38 36 34 33 31 31 29 27 27 28 23 23 22 23 26 27 27 26 27 27 28 28 28 28 29 31
20 21 25 38 44 41 42 43 44 49 55 60 58 54 53 46 43 39 37 35 33 33 32 32 32 30 29 29 26 25 25 24 26 29 30 30 31 31 31 31 32 33 34
19 18 16 19 20 29 39 45 46 43 42 43 47 47 49 47 45 43 40 38 37 36 34 33 35 33 31 31 33 33 28 24 26 29 32 33 33 33 33 34 35 36 38
Wind_Direction
210 192 236 104 62 59 51 40 36 31 29 27 22 13 7 2 358 1 5 13 17 14 27 53 61 70 97 170 233 243 250 250 246 242 257 282 293 295 299 306 311 313 313
192 199 173 146 111 69 61 48 44 36 31 30 26 18 9 2 357 360 9 28 49 37 30 58 63 78 81 72 80 198 235 250 261 280 294 294 297 298 298 302 303 302 303
198 196 183 166 145 92 70 56 51 43 37 27 23 18 14 11 7 360 4 25 54 61 60 49 62 58 57 60 64 63 74 360 338 324 316 315 312 309 306 304 301 300 299
209 197 197 184 165 121 88 70 56 42 36 32 23 19 16 15 17 18 16 25 38 47 54 64 67 71 69 61 58 48 30 10 352 332 320 314 311 308 305 303 302 298 295
208 199 200 194 174 129 111 81 61 46 40 34 22 21 20 19 22 28 32 41 47 53 51 57 62 65 59 54 54 53 47 16 345 330 312 314 312 312 306 302 298 296 294
212 212 206 197 188 169 157 112 73 49 33 34 29 30 33 34 36 42 47 50 52 56 60 57 52 49 48 50 49 44 43 35 19 347 335 332 330 317 305 304 300 298 294
201 218 212 199 193 180 171 165 137 74 42 36 36 34 40 43 47 47 51 54 55 59 61 60 59 58 57 56 53 42 31 20 17 359 338 328 319 305 301 299 294 296 306
220 211 216 207 197 194 187 212 187 177 356 12 42 45 47 46 45 46 49 53 54 52 52 49 46 44 38 33 27 17 7 359 346 336 326 319 314 304 300 297 293 293 295
221 219 215 217 204 203 201 225 219 214 304 296 306 20 47 27 25 41 49 50 50 51 47 47 45 41 37 29 15 8 354 344 338 333 327 321 314 306 304 298 295 297 294
223 217 221 216 217 215 217 224 227 231 246 281 279 277 279 334 349 1 16 30 38 38 35 30 30 30 25 20 13 2 353 344 336 333 330 324 317 313 306 300 300 298 294
242 233 231 225 220 221 226 232 234 235 243 255 263 275 276 272 282 293 311 332 354 10 8 10 13 13 11 6 2 355 349 342 337 333 329 322 318 316 309 304 305 304 297
247 238 234 236 234 232 231 237 237 237 240 247 254 258 269 270 269 277 280 284 289 297 308 318 329 339 341 347 347 344 340 336 331 330 327 324 322 318 313 311 308 306 301
230 240 245 241 242 241 242 244 241 239 244 245 250 256 263 267 267 267 271 269 273 275 279 291 299 309 314 321 324 326 327 324 323 323 323 321 320 318 314 312 310 308 304
249 240 238 238 243 244 244 245 246 246 245 245 248 251 259 265 264 264 266 269 269 272 275 282 288 294 298 302 307 311 314 315 316 317 318 319 318 317 314 311 311 308 303
247 253 248 243 243 245 246 246 246 246 248 250 251 254 258 261 262 266 267 269 267 266 267 273 278 284 290 294 298 301 303 306 308 312 313 314 314 315 314 311 308 306 304
258 261 262 257 252 247 245 245 243 245 246 246 248 250 251 254 259 264 266 266 267 264 265 271 275 281 286 291 293 295 298 300 302 306 307 309 310 310 310 309 307 305 305
264 266 264 259 257 250 249 247 246 247 247 244 246 247 248 255 258 261 262 263 264 262 265 270 273 279 285 289 290 292 294 293 296 298 300 302 303 304 306 309 311 312 312
264 261 267 267 255 257 259 255 252 250 248 248 246 247 251 255 256 259 262 263 258 259 262 266 273 279 282 285 287 290 291 290 291 293 296 296 297 299 305 310 313 315 318
261 264 266 264 265 262 262 259 256 251 249 248 246 248 250 249 253 257 260 256 256 257 260 269 274 277 280 281 284 287 287 286 285 286 287 287 290 294 301 306 311 315 317
252 255 261 261 260 263 262 260 257 254 253 252 251 249 251 249 249 250 254 256 259 261 268 270 274 275 275 280 285 285 282 280 280 280 278 277 278 284 291 299 305 310 313
250 248 252 256 258 261 260 262 263 261 258 259 258 256 253 250 247 250 252 256 257 264 262 265 271 273 274 279 285 284 279 276 274 273 270 270 274 280 287 293 299 305 309
251 251 250 250 251 250 253 257 261 262 263 264 261 257 258 255 249 249 252 255 256 257 262 267 271 270 272 279 284 280 277 275 271 268 266 266 272 276 281 287 293 300 305
249 249 250 253 253 251 256 251 253 254 256 260 264 258 258 256 254 251 251 251 256 257 261 267 272 274 270 273 279 278 276 275 270 265 264 265 269 274 280 286 292 297 301
250 250 254 251 254 255 253 251 249 251 254 256 259 263 263 264 257 254 252 253 255 259 262 266 276 284 282 276 276 281 280 274 270 265 264 266 269 274 280 286 291 295 299
264 254 249 250 253 256 257 256 253 253 253 254 256 258 257 255 255 256 256 255 254 258 259 264 270 279 285 278 278 278 277 279 271 269 268 269 271 276 282 287 291 294 298
261 259 254 243 243 253 257 258 257 257 258 256 255 256 253 251 252 254 255 254 255 260 258 259 262 270 275 276 275 279 274 279 274 269 271 271 273 277 281 286 289 293 298